�N����,����,�~����,�C��,���x,�C��,����,���ϕ���,�ő�u�ԕ���,�ő厞����,���˗�,�I�_���x,�n�����x,�ő啗���N��,DTYPE
"18/07/29","00:10",0.0,28.2,73.5,985.4,340.9,5.0,10.2,336.5,0.00,23.1,26.7,"00:00:48",1
"18/07/29","00:20",0.0,28.2,73.6,984.9,340.0,4.0,8.6,1.5,0.00,23.1,26.7,"00:18:56",1
"18/07/29","00:30",0.0,28.3,73.2,984.4,336.1,4.9,10.1,317.1,0.00,23.1,26.8,"00:20:08",1
"18/07/29","00:40",0.0,28.3,73.3,984.2,338.9,5.0,8.9,324.2,0.00,23.1,26.7,"00:34:16",1
"18/07/29","00:50",0.0,27.8,75.4,983.7,336.5,4.5,11.6,346.3,0.00,23.1,26.6,"00:43:44",1
"18/07/29","01:00",0.0,27.5,76.9,983.5,341.4,4.9,8.7,336.9,0.00,23.1,26.7,"00:57:20",1
"18/07/29","01:10",0.0,27.7,76.8,983.3,339.8,5.4,11.6,341.0,0.00,23.3,26.4,"01:07:28",1
"18/07/29","01:20",0.2,27.3,78.3,983.0,342.8,4.9,11.4,344.8,0.00,23.2,26.4,"01:11:28",1
"18/07/29","01:30",0.0,26.8,80.9,982.6,342.4,3.6,7.9,21.0,0.00,23.3,26.5,"01:29:04",1
"18/07/29","01:40",0.6,26.5,82.8,981.6,339.4,3.7,8.8,341.2,0.00,23.4,26.4,"01:32:32",1
"18/07/29","01:50",0.0,26.4,83.8,982.1,345.4,4.1,8.0,334.9,0.00,23.5,26.3,"01:48:48",1
"18/07/29","02:00",0.2,26.4,84.1,982.6,341.3,3.7,8.5,346.8,0.00,23.5,26.3,"01:55:28",1
"18/07/29","02:10",0.4,26.3,85.0,982.3,341.0,2.8,5.1,358.6,0.00,23.6,26.4,"02:00:08",1
"18/07/29","02:20",0.6,26.0,85.9,982.3,334.4,3.6,9.7,323.1,0.00,23.5,26.4,"02:19:12",1
"18/07/29","02:30",1.6,25.9,86.5,982.6,353.0,4.1,7.8,9.6,0.00,23.5,26.3,"02:24:40",1
"18/07/29","02:40",1.6,25.8,86.7,982.3,358.0,3.6,8.1,349.8,0.00,23.5,26.2,"02:31:04",1
"18/07/29","02:50",2.2,25.7,87.4,982.1,350.3,3.7,7.2,318.9,0.00,23.5,26.2,"02:45:30",1
"18/07/29","03:00",1.8,25.4,87.7,981.8,358.8,3.2,7.9,336.5,0.00,23.3,26.0,"02:58:36",1
"18/07/29","03:10",1.2,25.6,86.4,981.8,15.7,4.2,9.7,359.7,0.00,23.2,25.9,"03:03:44",1
"18/07/29","03:20",2.4,25.4,86.0,981.8,15.1,3.4,8.3,38.9,0.00,22.9,25.6,"03:11:58",1
"18/07/29","03:30",2.6,25.2,86.8,981.8,35.8,3.5,9.0,41.4,0.00,22.9,25.4,"03:29:54",1
"18/07/29","03:40",2.2,25.1,87.3,981.6,37.9,3.6,10.4,35.7,0.00,22.9,25.3,"03:32:42",1
"18/07/29","03:50",1.0,25.1,87.9,981.8,39.6,3.4,14.9,13.2,0.00,23.0,25.2,"03:46:26",1
"18/07/29","04:00",0.4,25.3,87.8,982.6,59.7,3.2,7.4,14.9,0.00,23.2,25.4,"03:58:54",1
"18/07/29","04:10",0.4,25.2,87.7,983.7,72.7,2.6,7.3,68.4,0.00,23.1,25.3,"04:01:36",1
"18/07/29","04:20",0.2,25.1,88.2,984.2,88.8,2.7,7.3,69.3,0.00,23.0,25.5,"04:15:52",1
"18/07/29","04:30",0.2,25.0,88.9,984.7,85.8,2.5,6.6,17.1,0.00,23.1,25.3,"04:20:08",1
"18/07/29","04:40",0.0,24.9,89.3,985.2,85.5,2.5,6.4,103.2,0.00,23.1,25.3,"04:32:48",1
"18/07/29","04:50",0.2,24.8,89.7,985.6,84.4,2.1,5.1,137.6,0.00,23.0,25.5,"04:44:24",1
"18/07/29","05:00",0.0,24.8,89.7,986.6,95.3,2.3,4.8,81.6,0.00,23.0,25.5,"04:59:44",1
"18/07/29","05:10",0.2,24.8,89.5,986.6,98.8,2.0,5.2,98.0,0.00,23.0,25.5,"05:01:28",1
"18/07/29","05:20",0.4,24.7,89.8,987.0,86.1,2.1,5.6,99.0,0.00,23.0,25.4,"05:11:44",1
"18/07/29","05:30",0.0,24.7,90.0,987.5,99.2,2.0,4.3,75.8,0.00,23.0,25.2,"05:29:20",1
"18/07/29","05:40",0.0,24.7,90.0,988.0,97.5,1.7,4.1,115.1,0.00,23.0,25.4,"05:35:20",1
"18/07/29","05:50",0.0,24.7,89.5,988.5,104.8,2.2,5.8,174.4,0.00,22.9,25.4,"05:48:56",1
"18/07/29","06:00",0.0,25.0,88.3,988.5,94.1,1.7,4.0,93.1,0.00,23.0,25.4,"05:50:24",1
"18/07/29","06:10",0.0,25.2,87.2,989.2,93.7,1.7,4.5,140.0,0.00,23.0,25.4,"06:09:12",1
"18/07/29","06:20",0.0,25.4,85.9,989.4,107.9,1.7,6.0,132.4,0.00,22.9,25.2,"06:19:12",1
"18/07/29","06:30",0.0,25.5,84.7,989.9,105.5,1.7,3.5,129.6,0.00,22.8,25.3,"06:22:48",1
"18/07/29","06:40",0.0,25.8,83.7,990.1,89.5,1.6,4.1,144.6,0.00,22.9,25.5,"06:33:44",1
"18/07/29","06:50",0.0,26.6,82.0,990.1,100.8,1.7,4.0,103.4,0.06,23.3,25.4,"06:46:08",1
"18/07/29","07:00",0.0,27.1,79.6,990.4,124.8,1.8,5.9,141.0,0.09,23.3,25.5,"06:59:12",1
"18/07/29","07:10",0.0,27.0,80.3,989.9,122.0,1.6,3.6,139.5,0.09,23.4,25.5,"07:02:08",1
"18/07/29","07:20",0.0,27.1,81.0,990.4,112.1,1.6,5.5,152.7,0.09,23.6,25.5,"07:10:24",1
"18/07/29","07:30",0.0,27.2,78.8,990.6,123.1,1.7,4.8,164.6,0.06,23.2,25.6,"07:26:32",1
"18/07/29","07:40",0.0,27.1,79.1,990.6,133.9,1.8,4.1,137.8,0.05,23.2,25.6,"07:38:16",1
"18/07/29","07:50",0.0,27.1,79.1,990.6,149.9,2.0,5.5,133.4,0.04,23.2,25.6,"07:41:04",1
"18/07/29","08:00",0.0,27.3,78.6,990.6,147.5,2.2,4.8,132.9,0.07,23.3,25.6,"07:58:48",1
"18/07/29","08:10",0.0,27.5,78.3,991.1,121.7,1.6,4.2,165.5,0.09,23.4,25.6,"08:08:56",1
"18/07/29","08:20",0.0,27.6,78.0,991.1,131.7,1.3,4.3,148.1,0.07,23.5,25.7,"08:10:48",1
"18/07/29","08:30",0.0,27.5,77.9,991.3,149.7,1.5,4.8,145.0,0.06,23.3,25.5,"08:20:16",1
"18/07/29","08:40",0.0,28.2,76.4,991.1,122.2,1.5,4.2,83.8,0.19,23.7,25.6,"08:32:32",1
"18/07/29","08:50",0.0,27.9,76.7,991.3,123.4,1.2,3.2,106.4,0.13,23.5,25.9,"08:45:28",1
"18/07/29","09:00",0.0,28.1,77.1,991.3,131.2,1.5,3.7,113.2,0.12,23.7,26.0,"08:52:40",1
"18/07/29","09:10",0.0,28.4,75.2,991.5,116.9,1.6,3.9,64.6,0.23,23.6,25.8,"09:05:04",1
"18/07/29","09:20",0.0,28.4,75.9,991.3,123.9,1.3,4.4,122.1,0.12,23.8,26.1,"09:10:24",1
"18/07/29","09:30",0.0,28.2,75.2,991.5,125.9,1.7,4.8,165.5,0.10,23.4,26.1,"09:29:44",1
"18/07/29","09:40",0.0,28.3,76.5,991.5,114.8,1.2,3.4,143.2,0.12,23.8,26.1,"09:30:32",1
"18/07/29","09:50",0.0,28.2,75.6,991.8,105.5,1.2,2.9,47.1,0.08,23.5,26.1,"09:43:28",1
"18/07/29","10:00",0.0,28.3,75.4,992.0,93.8,1.3,3.7,107.7,0.11,23.6,26.3,"09:58:08",1
"18/07/29","10:10",0.0,28.1,76.6,991.8,94.8,0.7,2.0,52.1,0.04,23.6,26.2,"10:04:40",1
"18/07/29","10:20",0.2,28.4,77.5,992.2,91.3,1.0,3.7,96.8,0.07,24.1,26.4,"10:10:40",1
"18/07/29","10:30",0.0,27.9,78.5,992.0,53.3,1.0,2.9,84.5,0.08,23.9,26.1,"10:24:24",1
"18/07/29","10:40",0.0,27.5,83.0,992.2,79.3,0.7,1.8,110.7,0.11,24.4,26.3,"10:37:44",1
"18/07/29","10:50",0.0,27.8,81.5,992.2,67.7,0.8,2.7,53.3,0.08,24.4,26.3,"10:41:12",1
"18/07/29","11:00",0.0,27.9,81.1,992.5,79.7,1.1,3.4,54.7,0.13,24.4,26.2,"10:52:56",1
"18/07/29","11:10",0.0,28.1,80.0,992.5,88.8,1.2,3.6,135.6,0.10,24.4,26.2,"11:04:16",1
"18/07/29","11:20",0.0,28.2,79.0,992.7,74.1,1.1,3.9,138.7,0.08,24.3,26.5,"11:12:08",1
"18/07/29","11:30",0.0,28.2,78.4,992.7,69.8,1.2,4.1,115.2,0.07,24.1,26.6,"11:21:12",1
"18/07/29","11:40",0.0,28.5,77.7,992.5,78.2,1.0,2.7,49.6,0.08,24.3,26.4,"11:30:48",1
"18/07/29","11:50",0.0,28.4,77.8,992.7,68.1,1.2,3.4,81.8,0.07,24.2,26.6,"11:41:44",1
"18/07/29","12:00",0.0,27.8,80.3,993.2,62.0,1.5,4.2,69.2,0.08,24.1,26.4,"11:57:44",1
"18/07/29","12:10",1.2,26.7,84.2,993.0,82.6,1.2,4.2,42.1,0.06,23.8,26.7,"12:01:04",1
"18/07/29","12:20",0.0,26.3,88.3,993.2,78.1,1.1,2.7,108.4,0.10,24.2,26.4,"12:10:48",1
"18/07/29","12:30",0.4,26.4,88.9,993.4,64.0,0.7,2.7,74.1,0.09,24.5,26.6,"12:24:32",1
"18/07/29","12:40",0.0,26.2,89.6,993.2,38.0,0.6,1.8,82.5,0.08,24.4,26.6,"12:35:44",1
"18/07/29","12:50",0.0,26.3,89.0,993.2,71.4,0.8,2.2,85.9,0.09,24.4,26.6,"12:47:12",1
"18/07/29","13:00",0.0,27.3,89.9,993.0,66.8,1.0,2.6,62.1,0.28,25.5,26.4,"12:53:12",1
"18/07/29","13:10",0.0,27.8,85.5,993.2,44.7,1.5,3.5,88.2,0.45,25.2,26.6,"13:00:56",1
"18/07/29","13:20",0.0,29.1,81.7,992.5,69.1,1.3,3.5,76.7,0.62,25.7,26.8,"13:19:52",1
"18/07/29","13:30",0.0,29.6,80.0,993.2,89.5,1.5,3.6,107.7,0.57,25.8,26.8,"13:22:56",1
"18/07/29","13:40",0.0,29.9,76.5,993.9,91.6,1.3,3.1,118.1,0.58,25.4,26.8,"13:39:20",1
"18/07/29","13:50",0.0,30.4,74.8,994.4,89.8,1.5,2.9,116.7,0.51,25.5,27.2,"13:41:28",1
"18/07/29","14:00",0.0,30.6,73.7,994.4,88.0,1.5,3.1,62.5,0.46,25.4,27.2,"13:57:52",1
"18/07/29","14:10",0.0,30.0,74.3,994.6,84.6,1.5,4.0,83.3,0.23,25.0,27.3,"14:04:08",1
"18/07/29","14:20",0.0,29.7,75.0,994.6,85.9,1.5,3.2,113.7,0.15,24.8,27.6,"14:15:04",1
"18/07/29","14:30",0.0,29.8,73.6,993.9,88.7,1.7,3.7,101.7,0.11,24.6,27.5,"14:23:12",1
"18/07/29","14:40",0.0,29.9,72.4,993.7,112.5,1.7,4.7,72.8,0.12,24.4,27.4,"14:32:56",1
"18/07/29","14:50",0.0,29.7,71.2,994.1,107.0,1.8,3.6,110.9,0.13,24.0,27.6,"14:43:36",1
"18/07/29","15:00",0.0,29.7,70.8,993.9,102.3,1.5,3.5,178.9,0.07,23.9,27.5,"14:56:48",1
"18/07/29","15:10",0.0,29.5,72.5,993.7,111.2,1.1,2.4,135.7,0.02,24.1,27.4,"15:00:48",1
"18/07/29","15:20",0.0,29.5,72.2,993.4,90.0,1.3,2.9,117.5,0.06,24.0,27.5,"15:18:08",1
"18/07/29","15:30",0.0,29.6,71.2,993.9,105.1,1.2,4.0,132.9,0.04,23.9,27.5,"15:25:04",1
"18/07/29","15:40",0.0,29.6,72.1,993.9,87.3,1.1,3.1,95.7,0.06,24.1,27.4,"15:37:44",1
"18/07/29","15:50",0.0,29.1,74.3,993.7,90.3,1.0,2.7,101.1,0.05,24.1,27.5,"15:43:04",1
"18/07/29","16:00",0.0,29.0,75.5,993.7,86.8,1.1,3.4,105.3,0.04,24.3,27.4,"15:50:48",1
"18/07/29","16:10",0.0,29.1,74.5,993.9,78.2,1.2,4.5,97.6,0.05,24.1,27.6,"16:08:16",1
"18/07/29","16:20",0.0,29.8,71.5,994.1,86.2,1.5,3.5,103.5,0.12,24.1,27.4,"16:14:56",1
"18/07/29","16:30",0.0,29.8,70.8,994.8,103.4,1.5,3.2,106.1,0.10,24.0,27.2,"16:22:56",1
"18/07/29","16:40",0.0,29.3,70.2,994.6,109.5,1.3,3.6,113.2,0.07,23.3,27.5,"16:30:02",1
"18/07/29","16:50",0.0,29.3,71.7,994.6,105.0,1.6,4.3,143.4,0.09,23.7,27.3,"16:41:04",1
"18/07/29","17:00",0.0,29.4,70.6,994.8,95.5,1.5,3.5,71.9,0.09,23.5,27.4,"16:52:16",1
"18/07/29","17:10",0.0,29.0,72.5,994.8,105.7,1.2,3.5,131.2,0.10,23.6,27.2,"17:04:24",1
"18/07/29","17:20",0.0,29.3,71.2,995.1,103.4,1.2,3.9,104.5,0.07,23.6,27.2,"17:19:04",1
"18/07/29","17:30",0.0,28.9,72.0,994.6,105.7,1.3,3.2,96.0,0.04,23.4,27.3,"17:25:44",1
"18/07/29","17:40",0.0,28.5,73.6,994.4,87.8,1.6,4.5,55.2,0.03,23.4,27.2,"17:39:28",1
"18/07/29","17:50",0.0,28.2,75.0,995.3,70.7,1.5,4.4,109.5,0.01,23.4,27.3,"17:43:04",1
"18/07/29","18:00",0.0,27.8,76.9,995.3,80.1,1.5,4.0,115.0,0.01,23.4,27.2,"17:53:44",1
"18/07/29","18:10",0.0,27.9,77.6,995.1,77.0,1.3,3.7,62.2,0.01,23.7,27.2,"18:02:16",1
"18/07/29","18:20",0.0,27.7,77.5,995.8,83.2,1.5,3.1,120.5,0.00,23.4,27.2,"18:16:00",1
"18/07/29","18:30",0.0,27.5,78.4,995.8,85.8,1.6,4.5,76.1,0.00,23.4,27.2,"18:20:32",1
"18/07/29","18:40",0.0,27.4,78.9,995.8,97.9,1.2,4.2,119.6,0.00,23.5,27.1,"18:30:08",1
"18/07/29","18:50",0.0,27.4,78.8,995.8,79.1,1.2,2.9,83.7,0.00,23.4,26.9,"18:42:40",1
"18/07/29","19:00",0.0,27.3,78.7,996.3,94.6,1.3,2.8,119.0,0.00,23.3,26.9,"18:52:08",1
"18/07/29","19:10",0.0,27.3,78.8,996.5,75.5,1.1,2.2,81.4,0.00,23.3,26.8,"19:03:36",1
"18/07/29","19:20",0.0,27.1,79.5,996.7,64.7,0.8,2.7,37.9,0.00,23.3,26.9,"19:19:04",1
"18/07/29","19:30",0.0,27.1,79.4,997.2,68.3,1.0,2.9,87.4,0.00,23.3,26.7,"19:20:32",1
"18/07/29","19:40",0.0,27.0,79.8,997.0,72.7,0.6,1.2,107.2,0.00,23.3,26.7,"19:30:56",1
"18/07/29","19:50",0.0,26.9,79.9,997.4,63.0,0.7,2.4,98.8,0.00,23.2,26.7,"19:40:08",1
"18/07/29","20:00",0.0,26.9,79.8,997.2,76.6,1.0,3.3,118.7,0.00,23.2,26.7,"19:59:52",1
"18/07/29","20:10",0.0,27.0,79.3,997.7,64.8,1.0,2.8,70.8,0.00,23.1,26.6,"20:00:08",1
"18/07/29","20:20",0.0,26.9,79.1,997.7,81.2,1.0,3.2,124.5,0.00,23.0,26.5,"20:12:40",1
"18/07/29","20:30",0.0,26.7,79.6,997.9,131.8,0.8,1.9,182.6,0.00,22.9,26.6,"20:26:08",1
"18/07/29","20:40",0.0,26.8,79.4,997.9,109.8,1.0,3.5,132.5,0.00,23.0,26.4,"20:31:36",1
"18/07/29","20:50",0.0,26.8,79.0,998.6,94.3,1.2,3.5,108.7,0.00,22.9,26.5,"20:40:24",1
"18/07/29","21:00",0.0,26.7,79.1,998.2,91.9,0.8,2.6,51.1,0.00,22.8,26.5,"20:58:08",1
"18/07/29","21:10",0.0,26.6,79.2,998.9,110.6,0.6,2.2,128.5,0.00,22.7,26.4,"21:01:20",1
"18/07/29","21:20",0.0,26.5,79.5,998.6,63.0,0.6,1.3,69.5,0.00,22.7,26.4,"21:19:12",1
"18/07/29","21:30",0.0,26.5,79.4,998.9,77.8,0.6,2.2,77.6,0.00,22.7,26.4,"21:28:40",1
"18/07/29","21:40",0.0,26.3,80.2,999.1,53.5,0.7,2.1,57.4,0.00,22.7,26.3,"21:38:56",1
"18/07/29","21:50",0.0,26.5,79.3,999.1,131.3,0.8,2.4,133.3,0.00,22.7,26.4,"21:40:32",1
"18/07/29","22:00",0.0,26.5,79.5,998.9,149.0,0.8,2.7,148.4,0.00,22.7,26.2,"21:50:02",1
"18/07/29","22:10",0.0,26.6,79.1,998.9,145.3,0.6,2.2,116.2,0.00,22.7,26.3,"22:07:44",1
"18/07/29","22:20",0.0,26.6,79.0,999.1,112.9,0.7,1.8,143.7,0.00,22.7,26.1,"22:16:32",1
"18/07/29","22:30",0.0,26.5,78.9,998.9,114.0,0.7,1.7,127.1,0.00,22.6,26.1,"22:20:24",1
"18/07/29","22:40",0.0,26.4,79.0,999.3,88.7,0.6,2.5,55.9,0.00,22.5,26.2,"22:36:24",1
"18/07/29","22:50",0.0,26.3,79.1,999.3,134.4,0.8,2.5,189.1,0.00,22.4,26.2,"22:48:56",1
"18/07/29","23:00",0.0,26.2,79.4,999.1,117.6,0.6,1.6,131.0,0.00,22.4,26.1,"22:52:32",1
"18/07/29","23:10",0.0,26.2,79.4,998.9,43.5,0.5,1.7,69.8,0.00,22.4,25.8,"23:01:04",1
"18/07/29","23:20",0.0,26.0,80.0,999.3,123.3,0.3,1.6,146.5,0.00,22.3,25.9,"23:17:04",1
"18/07/29","23:30",0.0,26.0,80.6,998.9,58.0,1.0,2.6,51.4,0.00,22.4,26.1,"23:28:56",1
"18/07/29","23:40",0.0,26.2,79.7,999.6,47.2,1.0,2.4,46.5,0.00,22.5,26.0,"23:31:20",1
"18/07/29","23:50",0.0,26.2,79.0,999.3,70.2,1.0,2.1,75.2,0.00,22.3,25.8,"23:45:52",1
"18/07/29","24:00",0.0,26.2,78.9,999.3,100.3,1.0,3.4,112.1,0.00,22.3,25.9,"23:53:44",1
